Meteo Giornale » Osservazioni meteo Stati Uniti (USA) » Clarks Point
ore: 18:56 - Osservazioni Meteo Clarks Point
Lat. 58° 50' N Lon. 158° 32' W Alt. 24 metri s.l.m.
13 °C
Sereno
Temp. 24 Ore
0 °C
14 °C
Sud-Ovest
7.4 Km/h
Dew point 6 °C
Umidità 62 %
Visibilità 10 Km
Il sole sorge alle ore 07:31
Il sole tramonta alle ore 21:37
| Data e Ora | Cielo e Fenomeni | T °C | DP °C | Um. % | Pres. hPa | Vis. km | Vento km/h | |
|---|---|---|---|---|---|---|---|---|
| Oggi h: 18:56 | Sereno | 13 | 6 | 62 | 1013 | 10 | SO 7.4 | |
| Oggi h: 17:56 | Sereno | 14 | 4 | 50 | 1013 | 10 | N 0 | |
| Oggi h: 16:56 | Sereno | 13 | 4 | 54 | 1013 | 10 | O 7.4 | |
| Oggi h: 15:56 | Sereno | 13 | 4 | 54 | 1013 | 10 | O 7.4 | |
| Oggi h: 14:56 | Sereno | 12 | 4 | 57 | 1013 | 10 | N/NO 13 | |
| Oggi h: 13:56 | Sereno | 11 | 4 | 61 | 1013 | 10 | N/NO 14.8 | |
| Oggi h: 12:56 | Sereno | 11 | 4 | 61 | 1013 | 10 | N/NO 16.7 | |
| Oggi h: 11:56 | Sereno | 10 | 3 | 61 | 1013 | 10 | N 13 | |
| Oggi h: 10:56 | Sereno | 9 | 3 | 66 | 1013 | 10 | NE 18.5 | |
| Oggi h: 10:22 | Nuvoloso | 9 | 4 | 70 | 1013 | 10 | N/NE 16.7 | |
| Oggi h: 09:56 | Molto Nuvoloso | 8 | 6 | 87 | 1013 | 10 | N 9.3 | |
| Oggi h: 09:49 | Molto Nuvoloso | 8 | 6 | 87 | 1013 | 10 | N 11.1 | |
| Oggi h: 08:56 | Sereno | 8 | 3 | 70 | 1012 | 10 | O/NO 16.7 | |
| Oggi h: 07:56 | Sereno | 8 | 3 | 70 | 1012 | 10 | O/NO 14.8 | |
| Oggi h: 06:56 | Sereno | 9 | 0 | 53 | 1012 | 10 | O 20.3 | |
| Oggi h: 05:56 | Sereno | 0 | 0 | 93 | 1012 | 10 | O/SO 16.7 | |
| Oggi h: 04:56 | Sereno | 0 | 0 | 93 | 1013 | 10 | O/SO 18.5 | |
| Oggi h: 03:56 | Sereno | 0 | 0 | 93 | 1014 | 10 | SO 16.7 | |
| Oggi h: 02:56 | Sereno | 0 | 0 | 100 | 1014 | 10 | SO 18.5 | |
| Oggi h: 01:56 | Sereno | 0 | 0 | 100 | 1015 | 10 | O/SO 14.8 | |
| Oggi h: 00:56 | Sereno | 0 | 0 | 93 | 1014 | 10 | SO 13 | |
| Ieri h: 23:56 | Sereno | 0 | 0 | 100 | 1015 | 10 | O/SO 16.7 | |
| Ieri h: 22:56 | Sereno | 0 | 0 | 100 | 1015 | 10 | O/SO 16.7 | |
| Ieri h: 21:56 | Sereno | 0 | 0 | 100 | 1015 | 10 | SO 20.3 | |
| Ieri h: 20:56 | Poco Nuvoloso | 0 | 0 | 100 | 1015 | 10 | O/SO 22.2 | |
| Ieri h: 20:21 | Nuvoloso | 11 | 11 | 100 | 1015 | 10 | O/SO 24 | |
| Ieri h: 19:56 | Molto Nuvoloso | 11 | 11 | 100 | 1015 | 10 | SO 18.5 | |
| Ieri h: 19:53 | Molto Nuvoloso | 11 | 11 | 100 | 1015 | 10 | O/SO 20.3 | |



